Location: Maddington
(51.2000°N, 1.9167°W)
Time: 13:33:18
(UTC+00:00)

NOSS 2-2 (E) - Pass Details

Date: 18 January 2021
Orbit: 462 x 1744 km, 63.3° (Epoch: 03 March)

Event Time Altitude Azimuth Distance (km) Brightness Sun altitude
Rises 19:48:19 0° 313° (NW) 2,860 7.7 -29.7°
Reaches altitude 10° 19:50:34 10° 325° (NW) 2,091 6.7 -30.1°
Enters shadow 19:52:35 22° 346° (NNW) 1,563 5.7 -30.4°
